Location: Nag� el Ma?a??a
(24.0667°N, 32.8833°E)
Time: 17:13:05
(UTC+00:00)

CZ-2C R/B - Pass Details

Date: 25 September 2021
Orbit: 389 x 575 km, 35.0° (Epoch: 16 October)

Event Time Altitude Azimuth Distance (km) Brightness Sun altitude
Exits shadow 02:29:55 27° 297° (WNW) 1,086 2.3 -16.4°
Maximum altitude 02:31:28 36° 341° (NNW) 889 2.2 -16.0°
Drops below altitude 10° 02:35:30 10° 48° (NE) 1,866 4.8 -15.1°
Sets 02:37:57 0° 57° (ENE) 2,772 6.1 -14.6°
